When you browse on this site, cookies collect data to enhance your experience and personalize the content and advertising you see.
Visit our Privacy Policy to learn more. By continuing to use the site, you agree to this use of cookies and data.
  • In Latvia
  • List of Countries
  • For 7 days
  • Water Temperature
  • Satellite Maps
  • Weather Map
  • Weather Widgets
  • user-avatar
    Login

    Hourly Weather Stuttgart

    Today, 17 November, Saturday

    Time Temperature Precipitation Wind Pressure Humidity
    00:00 +1°C° 0 mm 3 mps 743 mmHg 88%
    01:00 +1°C° 0 mm 3 mps 743 mmHg 89%
    02:00 +1°C° 0 mm 3 mps 743 mmHg 89%
    03:00 +1°C° 0 mm 3 mps 742 mmHg 88%
    04:00 +1°C° 0 mm 3 mps 742 mmHg 88%
    05:00 +1°C° 0 mm 3 mps 742 mmHg 87%
    06:00 +1°C° 0 mm 3 mps 742 mmHg 86%
    07:00 0°C° 0 mm 4 mps 742 mmHg 85%
    08:00 +1°C° 0 mm 4 mps 742 mmHg 78%
    09:00 +2°C° 0 mm 5 mps 742 mmHg 72%
    10:00 +3°C° 0 mm 5 mps 742 mmHg 65%
    11:00 +5°C° 0 mm 5 mps 742 mmHg 60%
    12:00 +5°C° 0 mm 6 mps 742 mmHg 54%
    13:00 +8°C° 0 mm 6 mps 742 mmHg 49%
    14:00 +7°C° 0 mm 5 mps 742 mmHg 50%
    15:00 +6°C° 0 mm 5 mps 741 mmHg 50%
    16:00 +6°C° 0 mm 5 mps 741 mmHg 51%
    17:00 +5°C° 0 mm 5 mps 741 mmHg 54%
    18:00 +3°C° 0 mm 5 mps 741 mmHg 57%
    19:00 +2°C° 0 mm 5 mps 741 mmHg 60%
    20:00 +2°C° 0 mm 5 mps 741 mmHg 62%
    21:00 +1°C° 0 mm 5 mps 741 mmHg 63%
    22:00 +1°C° 0 mm 5 mps 741 mmHg 65%
    23:00 +1°C° 0 mm 5 mps 741 mmHg 66%

    Tomorrow, 18 November, Sunday

    Time Temperature Precipitation Wind Pressure Humidity
    00:00 0°C° 0 mm 4 mps 741 mmHg 68%
    01:00 0°C° 0 mm 4 mps 741 mmHg 69%
    02:00 0°C° 0 mm 4 mps 741 mmHg 70%
    03:00 -1°C° 0 mm 4 mps 741 mmHg 70%
    04:00 -1°C° 0 mm 4 mps 741 mmHg 71%
    05:00 -1°C° 0 mm 4 mps 741 mmHg 72%
    06:00 -1°C° 0 mm 4 mps 741 mmHg 73%
    07:00 0°C° 0 mm 3 mps 741 mmHg 74%
    08:00 -1°C° 0 mm 4 mps 741 mmHg 70%
    09:00 0°C° 0 mm 4 mps 741 mmHg 66%
    10:00 +1°C° 0 mm 5 mps 741 mmHg 62%
    11:00 +2°C° 0 mm 5 mps 740 mmHg 58%
    12:00 +3°C° 0 mm 5 mps 740 mmHg 55%
    13:00 +6°C° 0 mm 5 mps 740 mmHg 51%
    14:00 +5°C° 0 mm 4 mps 740 mmHg 54%
    15:00 +5°C° 0 mm 4 mps 739 mmHg 57%
    16:00 +5°C° 0 mm 3 mps 739 mmHg 59%
    17:00 +4°C° 0 mm 3 mps 739 mmHg 63%
    18:00 +3°C° 0 mm 3 mps 739 mmHg 67%
    19:00 +2°C° 0 mm 3 mps 739 mmHg 71%
    20:00 +1°C° 0 mm 3 mps 739 mmHg 73%
    21:00 +1°C° 0 mm 3 mps 739 mmHg 75%
    22:00 0°C° 0 mm 3 mps 739 mmHg 76%
    23:00 0°C° 0 mm 3 mps 739 mmHg 76%

    Day after tomorrow, 19 November, Monday

    Time Temperature Precipitation Wind Pressure Humidity
    00:00 0°C° 0 mm 3 mps 738 mmHg 76%
    01:00 -1°C° 0 mm 3 mps 738 mmHg 76%
    02:00 -1°C° 0 mm 3 mps 738 mmHg 75%
    03:00 -1°C° 0 mm 3 mps 737 mmHg 74%
    04:00 -1°C° 0 mm 3 mps 737 mmHg 73%
    05:00 -2°C° 0 mm 3 mps 737 mmHg 74%
    06:00 -2°C° 0 mm 3 mps 737 mmHg 75%
    07:00 -2°C° 0 mm 3 mps 736 mmHg 76%
    08:00 -2°C° 0 mm 4 mps 736 mmHg 74%
    09:00 -1°C° 0 mm 4 mps 736 mmHg 72%
    10:00 0°C° 0 mm 5 mps 736 mmHg 70%
    11:00 +1°C° 0 mm 5 mps 735 mmHg 68%
    12:00 +2°C° 0 mm 5 mps 735 mmHg 66%
    13:00 +2°C° 0 mm 5 mps 734 mmHg 64%
    14:00 +2°C° 0.1 mm 5 mps 734 mmHg 65%
    15:00 +2°C° 0.1 mm 5 mps 733 mmHg 66%
    16:00 +2°C° 0.1 mm 5 mps 733 mmHg 66%
    17:00 +1°C° 0 mm 5 mps 733 mmHg 69%
    18:00 +1°C° 0 mm 5 mps 732 mmHg 72%
    19:00 0°C° 0 mm 4 mps 732 mmHg 74%
    20:00 0°C° 0 mm 4 mps 732 mmHg 77%
    21:00 0°C° 0 mm 4 mps 732 mmHg 81%
    22:00 -1°C° 0 mm 5 mps 731 mmHg 84%
    23:00 -1°C° 0 mm 5 mps 731 mmHg 83%

    20 November, Tuesday

    Time Temperature Precipitation Wind Pressure Humidity
    00:00 -1°C° 0 mm 5 mps 731 mmHg 83%
    01:00 -1°C° 0 mm 5 mps 730 mmHg 83%
    02:00 -1°C° 0.1 mm 5 mps 730 mmHg 82%
    03:00 -1°C° 0.1 mm 5 mps 729 mmHg 81%
    04:00 -1°C° 0.1 mm 5 mps 729 mmHg 80%
    05:00 -1°C° 0.1 mm 5 mps 729 mmHg 79%
    06:00 -1°C° 0.1 mm 5 mps 728 mmHg 78%
    07:00 -1°C° 0.1 mm 5 mps 728 mmHg 77%
    08:00 -1°C° 0 mm 5 mps 728 mmHg 74%
    09:00 -1°C° 0 mm 6 mps 727 mmHg 72%
    10:00 -1°C° 0 mm 6 mps 727 mmHg 70%
    11:00 -1°C° 0 mm 6 mps 727 mmHg 70%
    12:00 +1°C° 0 mm 6 mps 726 mmHg 69%
    13:00 +1°C° 0 mm 5 mps 726 mmHg 69%
    14:00 +1°C° 0.4 mm 5 mps 726 mmHg 74%
    15:00 0°C° 0.4 mm 5 mps 725 mmHg 78%
    16:00 0°C° 0.4 mm 5 mps 725 mmHg 83%
    17:00 0°C° 0.9 mm 5 mps 725 mmHg 85%
    18:00 -1°C° 0.9 mm 4 mps 725 mmHg 88%
    19:00 -1°C° 0.9 mm 4 mps 725 mmHg 90%
    20:00 -1°C° 0.6 mm 4 mps 725 mmHg 91%
    21:00 0°C° 0.6 mm 3 mps 725 mmHg 92%
    22:00 0°C° 0.6 mm 3 mps 725 mmHg 93%
    23:00 +1°C° 0.3 mm 2 mps 726 mmHg 94%

    21 November, Wednesday

    Time Temperature Precipitation Wind Pressure Humidity
    00:00 +1°C° 0.3 mm 2 mps 726 mmHg 95%
    01:00 +2°C° 0.3 mm 1 mps 726 mmHg 95%
    02:00 +1°C° 0.1 mm 1 mps 726 mmHg 96%
    03:00 +1°C° 0.1 mm 1 mps 726 mmHg 96%
    04:00 +1°C° 0.1 mm 1 mps 726 mmHg 97%
    05:00 +1°C° 0 mm 1 mps 726 mmHg 96%
    06:00 0°C° 0 mm 1 mps 727 mmHg 96%
    07:00 0°C° 0 mm 1 mps 727 mmHg 96%
    08:00 +1°C° 0 mm 1 mps 727 mmHg 94%
    09:00 +1°C° 0 mm 1 mps 728 mmHg 91%
    10:00 +1°C° 0 mm 2 mps 728 mmHg 89%
    11:00 +1°C° 0 mm 2 mps 728 mmHg 86%
    12:00 +2°C° 0 mm 2 mps 728 mmHg 83%
    13:00 +4°C° 0 mm 1 mps 728 mmHg 80%
    14:00 +3°C° 0 mm 1 mps 729 mmHg 82%
    15:00 +3°C° 0 mm 1 mps 729 mmHg 83%
    16:00 +2°C° 0 mm 0 mps 729 mmHg 85%
    17:00 +1°C° 0 mm 0 mps 730 mmHg 86%
    18:00 +1°C° 0 mm 1 mps 730 mmHg 88%
    19:00 +1°C° 0 mm 1 mps 731 mmHg 89%
    20:00 0°C° 0 mm 1 mps 731 mmHg 90%
    21:00 0°C° 0 mm 1 mps 731 mmHg 90%
    22:00 0°C° 0 mm 1 mps 732 mmHg 91%
    23:00 0°C° 0 mm 1 mps 732 mmHg 91%

    22 November, Thursday

    Time Temperature Precipitation Wind Pressure Humidity
    00:00 -1°C° 0 mm 0 mps 732 mmHg 91%
    01:00 -1°C° 0 mm 0 mps 732 mmHg 91%
    02:00 -1°C° 0 mm 0 mps 733 mmHg 91%
    03:00 -1°C° 0 mm 0 mps 733 mmHg 91%
    04:00 -1°C° 0 mm 0 mps 733 mmHg 91%
    05:00 -1°C° 0 mm 0 mps 733 mmHg 92%
    06:00 -2°C° 0 mm 0 mps 734 mmHg 92%
    07:00 -2°C° 0 mm 0 mps 734 mmHg 92%
    08:00 -1°C° 0 mm 0 mps 735 mmHg 90%
    09:00 0°C° 0 mm 0 mps 735 mmHg 87%
    10:00 +2°C° 0 mm 1 mps 736 mmHg 85%
    11:00 +3°C° 0 mm 1 mps 736 mmHg 82%
    12:00 +4°C° 0 mm 1 mps 736 mmHg 79%
    13:00 +5°C° 0 mm 1 mps 736 mmHg 76%
    14:00 +4°C° 0 mm 1 mps 736 mmHg 79%
    15:00 +4°C° 0 mm 1 mps 736 mmHg 82%
    16:00 +3°C° 0 mm 1 mps 737 mmHg 85%
    17:00 +2°C° 0 mm 1 mps 737 mmHg 86%
    18:00 +1°C° 0 mm 1 mps 737 mmHg 88%
    19:00 0°C° 0 mm 1 mps 738 mmHg 90%
    20:00 0°C° 0 mm 1 mps 738 mmHg 89%
    21:00 0°C° 0 mm 1 mps 738 mmHg 89%
    22:00 0°C° 0 mm 1 mps 739 mmHg 89%
    23:00 0°C° 0 mm 1 mps 739 mmHg 88%
    Show more